Location: Dana
(41.8364°N, 106.7042°W)
Time: 14:22:15
(UTC+00:00)

SR - Pass Details

Date: 13 May 2026
Orbit: 567 x 853 km, 66.7° (Epoch: 7 June)

Event Time Altitude Azimuth Distance (km) Brightness Sun altitude
Rises 23:19:02 0° 330° (NNW) 3,374 ? 31.5°
Reaches altitude 10° 23:21:28 10° 332° (NNW) 2,460 ? 31.0°
Maximum altitude 23:27:13 79° 59° (ENE) 872 ? 30.0°
Drops below altitude 10° 23:32:59 10° 146° (SSE) 2,464 ? 28.9°
Sets 23:35:25 0° 148° (SSE) 3,380 ? 28.5°
